GPS BIIR-14M

Last updated on Oct. 24, 2020, 5:54 a.m. UTC

1 28874U 05038A   20297.43744336 -.00000099  00000-0  00000-0 0  9998
2 28874  56.3472 355.1314 0138109 266.8011 231.0468  2.00552338110460
UTC
Height (km)
Latitude
Longitude
Inclination
Orbital Period
UTC large
Height (km)
Speed (km/s)
/
Latitude / Longitude
Inclination (degrees)
Orbital Period (minutes)
Azimuth
Elevation
Range (km)
Doppler Factor
iOS Compass Heading
iOS Angle

Next 30 passes for location: Hong Kong

Rise time Rise Azimuth (degrees) Set time Set Azimuth (degrees) Duration Max altitude (degrees)

No matching passes for this satellites